Meteo pe oră la Almachar

Astăzi, 20 Ianuarie, Miercuri

Timp Temperatura Precipitaţii Vânt Presiune Umiditate
00:00 +9°C° 0 mm 1 m/s 739 mmHg 70%
01:00 +9°C° 0 mm 1 m/s 738 mmHg 69%
02:00 +9°C° 0 mm 1 m/s 738 mmHg 69%
03:00 +10°C° 0 mm 1 m/s 737 mmHg 68%
04:00 +10°C° 0 mm 1 m/s 737 mmHg 70%
05:00 +9°C° 0 mm 2 m/s 737 mmHg 72%
06:00 +9°C° 0 mm 2 m/s 737 mmHg 74%
07:00 +9°C° 0 mm 2 m/s 736 mmHg 76%
08:00 +10°C° 0 mm 2 m/s 736 mmHg 78%
09:00 +10°C° 0 mm 3 m/s 736 mmHg 80%
10:00 +10°C° 0.6 mm 3 m/s 736 mmHg 84%
11:00 +10°C° 0.6 mm 4 m/s 736 mmHg 88%
12:00 +11°C° 0.6 mm 4 m/s 736 mmHg 92%
13:00 +11°C° 1 mm 4 m/s 736 mmHg 93%
14:00 +10°C° 1 mm 5 m/s 735 mmHg 94%
15:00 +10°C° 1 mm 5 m/s 734 mmHg 95%
16:00 +12°C° 2.7 mm 4 m/s 734 mmHg 96%
17:00 +12°C° 2.7 mm 4 m/s 734 mmHg 96%
18:00 +12°C° 2.7 mm 4 m/s 735 mmHg 96%
19:00 +11°C° 0.3 mm 3 m/s 735 mmHg 94%
20:00 +11°C° 0.3 mm 3 m/s 735 mmHg 92%
21:00 +11°C° 0.3 mm 3 m/s 736 mmHg 90%
22:00 +10°C° 0.1 mm 3 m/s 736 mmHg 89%
23:00 +10°C° 0.1 mm 3 m/s 737 mmHg 89%

Mâine, 21 Ianuarie, Joi

Timp Temperatura Precipitaţii Vânt Presiune Umiditate
00:00 +9°C° 0.1 mm 3 m/s 737 mmHg 88%
01:00 +9°C° 0 mm 3 m/s 737 mmHg 88%
02:00 +9°C° 0 mm 3 m/s 737 mmHg 88%
03:00 +10°C° 0 mm 2 m/s 737 mmHg 88%
04:00 +10°C° 0 mm 2 m/s 737 mmHg 89%
05:00 +10°C° 0 mm 2 m/s 738 mmHg 89%
06:00 +10°C° 0 mm 2 m/s 738 mmHg 90%
07:00 +10°C° 0 mm 2 m/s 738 mmHg 88%
08:00 +12°C° 0 mm 2 m/s 739 mmHg 86%
09:00 +12°C° 0 mm 2 m/s 739 mmHg 84%
10:00 +13°C° 0 mm 2 m/s 739 mmHg 78%
11:00 +14°C° 0 mm 3 m/s 739 mmHg 73%
12:00 +16°C° 0 mm 3 m/s 739 mmHg 67%
13:00 +15°C° 0 mm 4 m/s 739 mmHg 68%
14:00 +15°C° 0 mm 4 m/s 738 mmHg 69%
15:00 +15°C° 0 mm 4 m/s 738 mmHg 70%
16:00 +14°C° 0 mm 4 m/s 738 mmHg 75%
17:00 +13°C° 0 mm 4 m/s 738 mmHg 80%
18:00 +13°C° 0 mm 4 m/s 738 mmHg 86%
19:00 +12°C° 0 mm 3 m/s 738 mmHg 86%
20:00 +11°C° 0 mm 3 m/s 738 mmHg 87%
21:00 +11°C° 0 mm 3 m/s 739 mmHg 88%
22:00 +11°C° 0 mm 3 m/s 738 mmHg 88%
23:00 +11°C° 0 mm 3 m/s 738 mmHg 88%

Poimâine, 22 Ianuarie, Vineri

Timp Temperatura Precipitaţii Vânt Presiune Umiditate
00:00 +11°C° 0 mm 3 m/s 738 mmHg 88%
01:00 +11°C° 0 mm 3 m/s 737 mmHg 88%
02:00 +11°C° 0 mm 3 m/s 737 mmHg 88%
03:00 +11°C° 0 mm 4 m/s 736 mmHg 88%
04:00 +12°C° 0.8 mm 4 m/s 736 mmHg 91%
05:00 +12°C° 0.8 mm 4 m/s 736 mmHg 94%
06:00 +12°C° 0.8 mm 4 m/s 736 mmHg 97%
07:00 +12°C° 0.7 mm 4 m/s 736 mmHg 94%
08:00 +13°C° 0.7 mm 3 m/s 736 mmHg 92%
09:00 +13°C° 0.7 mm 3 m/s 736 mmHg 89%
10:00 +14°C° 0.1 mm 4 m/s 736 mmHg 84%
11:00 +15°C° 0.1 mm 5 m/s 737 mmHg 79%
12:00 +16°C° 0.1 mm 6 m/s 737 mmHg 74%
13:00 +15°C° 0 mm 7 m/s 736 mmHg 70%
14:00 +15°C° 0 mm 8 m/s 736 mmHg 66%
15:00 +13°C° 0 mm 9 m/s 736 mmHg 63%
16:00 +12°C° 0 mm 9 m/s 736 mmHg 66%
17:00 +11°C° 0 mm 9 m/s 737 mmHg 70%
18:00 +10°C° 0 mm 9 m/s 737 mmHg 74%
19:00 +9°C° 0 mm 7 m/s 738 mmHg 77%
20:00 +9°C° 0 mm 6 m/s 738 mmHg 79%
21:00 +8°C° 0 mm 5 m/s 739 mmHg 82%
22:00 +7°C° 0 mm 5 m/s 739 mmHg 83%
23:00 +7°C° 0 mm 5 m/s 739 mmHg 84%

23 Ianuarie, Sâmbătă

Timp Temperatura Precipitaţii Vânt Presiune Umiditate
00:00 +7°C° 0 mm 5 m/s 739 mmHg 84%
01:00 +7°C° 0 mm 5 m/s 739 mmHg 85%
02:00 +7°C° 0 mm 5 m/s 739 mmHg 85%
03:00 +6°C° 0 mm 5 m/s 739 mmHg 86%
04:00 +6°C° 0 mm 5 m/s 739 mmHg 85%
05:00 +6°C° 0 mm 4 m/s 739 mmHg 85%
06:00 +6°C° 0 mm 4 m/s 739 mmHg 84%
07:00 +7°C° 0 mm 4 m/s 739 mmHg 82%
08:00 +7°C° 0 mm 4 m/s 740 mmHg 80%
09:00 +8°C° 0 mm 4 m/s 740 mmHg 77%
10:00 +10°C° 0 mm 4 m/s 740 mmHg 73%
11:00 +11°C° 0 mm 4 m/s 739 mmHg 68%
12:00 +12°C° 0 mm 5 m/s 739 mmHg 64%
13:00 +12°C° 0 mm 4 m/s 739 mmHg 66%
14:00 +12°C° 0 mm 4 m/s 738 mmHg 67%
15:00 +12°C° 0 mm 4 m/s 738 mmHg 69%
16:00 +12°C° 0 mm 4 m/s 738 mmHg 73%
17:00 +11°C° 0 mm 3 m/s 738 mmHg 78%
18:00 +10°C° 0 mm 3 m/s 737 mmHg 82%
19:00 +10°C° 0 mm 3 m/s 737 mmHg 83%
20:00 +10°C° 0 mm 3 m/s 737 mmHg 84%
21:00 +9°C° 0 mm 3 m/s 737 mmHg 86%
22:00 +10°C° 0 mm 3 m/s 737 mmHg 86%
23:00 +10°C° 0 mm 3 m/s 737 mmHg 85%

24 Ianuarie, Duminică

Timp Temperatura Precipitaţii Vânt Presiune Umiditate
00:00 +10°C° 0 mm 3 m/s 737 mmHg 85%
01:00 +10°C° 0.1 mm 4 m/s 736 mmHg 87%
02:00 +11°C° 0.1 mm 4 m/s 736 mmHg 88%
03:00 +11°C° 0.1 mm 4 m/s 735 mmHg 90%
04:00 +11°C° 0.3 mm 4 m/s 735 mmHg 91%
05:00 +11°C° 0.3 mm 4 m/s 735 mmHg 92%
06:00 +12°C° 0.3 mm 4 m/s 735 mmHg 93%
07:00 +12°C° 0.2 mm 4 m/s 736 mmHg 93%
08:00 +12°C° 0.2 mm 4 m/s 736 mmHg 93%
09:00 +13°C° 0.2 mm 4 m/s 737 mmHg 92%
10:00 +13°C° 0 mm 5 m/s 737 mmHg 87%
11:00 +14°C° 0 mm 5 m/s 737 mmHg 81%
12:00 +15°C° 0 mm 5 m/s 737 mmHg 76%
13:00 +15°C° 0 mm 5 m/s 737 mmHg 74%
14:00 +16°C° 0 mm 6 m/s 737 mmHg 72%
15:00 +16°C° 0 mm 6 m/s 736 mmHg 70%
16:00 +15°C° 0 mm 5 m/s 736 mmHg 74%
17:00 +14°C° 0 mm 4 m/s 737 mmHg 79%
18:00 +13°C° 0 mm 4 m/s 737 mmHg 83%
19:00 +13°C° 0 mm 3 m/s 737 mmHg 83%
20:00 +13°C° 0 mm 3 m/s 737 mmHg 84%
21:00 +13°C° 0 mm 3 m/s 737 mmHg 84%
22:00 +12°C° 0 mm 3 m/s 737 mmHg 85%
23:00 +12°C° 0 mm 3 m/s 737 mmHg 85%

25 Ianuarie, Luni

Timp Temperatura Precipitaţii Vânt Presiune Umiditate
00:00 +12°C° 0 mm 3 m/s 737 mmHg 86%
01:00 +12°C° 0 mm 3 m/s 737 mmHg 86%
02:00 +12°C° 0 mm 3 m/s 737 mmHg 86%
03:00 +12°C° 0 mm 3 m/s 737 mmHg 86%
04:00 +12°C° 0 mm 3 m/s 737 mmHg 87%
05:00 +12°C° 0 mm 3 m/s 737 mmHg 87%
06:00 +12°C° 0 mm 3 m/s 737 mmHg 87%
07:00 +12°C° 0 mm 3 m/s 738 mmHg 86%
08:00 +12°C° 0 mm 3 m/s 738 mmHg 84%
09:00 +13°C° 0 mm 3 m/s 739 mmHg 82%
10:00 +14°C° 0 mm 3 m/s 739 mmHg 78%
11:00 +16°C° 0 mm 3 m/s 739 mmHg 73%
12:00 +17°C° 0 mm 3 m/s 739 mmHg 68%
13:00 +17°C° 0 mm 3 m/s 739 mmHg 67%
14:00 +17°C° 0 mm 4 m/s 739 mmHg 66%
15:00 +17°C° 0 mm 4 m/s 739 mmHg 65%
16:00 +15°C° 0 mm 4 m/s 739 mmHg 69%
17:00 +14°C° 0 mm 3 m/s 739 mmHg 73%
18:00 +13°C° 0 mm 3 m/s 740 mmHg 78%
19:00 +13°C° 0 mm 3 m/s 740 mmHg 79%
20:00 +12°C° 0 mm 3 m/s 741 mmHg 80%
21:00 +12°C° 0 mm 3 m/s 741 mmHg 81%
22:00 +12°C° 0 mm 3 m/s 741 mmHg 81%
23:00 +12°C° 0 mm 3 m/s 741 mmHg 80%
Arată mai mult

Formular de consimțământ

Meteoprog și furnizorii noștri de servicii pot stoca și accesa date personale, precum cookies, identificatori de dispozitiv sau alte tehnologii similare pe dispozitivul dumneavoastră și procesa astfel de date pentru a personaliza conținutul și reclamele, dar și pentru a oferi caracteristici de social media și pentru a analiza traficul.

  • Stocarea și/sau accesarea informațiilor pe dispozitivul dumneavoastră

    Cookies, identificatori de dispozitiv sau alte informații pot fi stocate sau accesate pe dispozitiv în scopurile indicate mai sus.

  • Reclame și conținut personalizat, evaluarea reclamelor și a conținutului, informații despre audiențe și dezvoltarea produselor

    Reclamele și conținutul pot fi personalizate pe baza unui profil. Pot fi adăugate date suplimentare pentru a personaliza mai bine reclamele și conținutul. Performanța reclamelor și conținutului poate fi măsurată. Pot fi obținute informații despre utilizatorii care au văzut reclamele și conținutul. Aceste date pot fi utilizate pentru a dezvolta sau îmbunătăți experiența utilizatorilor, sistemele și software-ul.

Dând clic pe ‘Sunt de acord’, permiteți utilizarea cookie-urilor menționate, a identificatorilor de dispozitiv, balizelor web sau altor tehnologii similare. Setările pot fi modificate din browser-ul dispozitivului dumneavoastră.

În anumite scopuri, interesele legitime pot prima asupra consimțământului. Puteți citi mai multe informații în acest sens în Politica privind Confidențialitatea Datelor și Cookie.